Cloud_Cover
59 4 0 3 3 5 9 4 5 5 4 6 15 5 46 100 80 4 26 100 25 49 7 2 0 5 90 99 100 100 100 100 100 98 95 100 5 5 36 5 94 35 14 6 34 38 14 100 100 100 100 100 100 6
15 0 5 5 5 5 5 5 5 4 0 1 0 0 6 3 0 2 10 100 63 65 4 0 0 7 72 81 96 100 100 100 100 100 100 13 18 29 88 18 32 100 99 18 93 10 92 100 100 100 100 99 86 89
5 5 5 5 5 5 5 5 10 1 1 0 0 2 4 2 0 2 28 84 87 46 3 4 9 48 71 100 48 94 86 84 100 97 82 37 4 4 10 5 95 79 100 100 24 69 100 88 77 100 100 99 100 100
61 5 5 5 5 6 5 0 5 1 0 0 0 0 0 0 0 3 87 72 71 88 97 14 51 54 55 63 92 89 100 24 11 7 99 73 100 13 98 100 36 100 99 5 4 91 96 16 100 67 100 100 100 100
9 5 5 7 12 4 0 0 0 0 0 0 0 4 3 0 0 14 22 75 100 96 100 44 100 100 91 99 100 94 99 54 64 92 96 91 75 9 69 94 74 90 98 56 69 17 76 6 69 68 94 100 100 100
5 5 5 16 5 6 0 0 0 4 6 0 0 5 8 11 5 58 97 100 100 100 100 92 97 100 100 100 98 98 57 22 17 76 100 98 58 5 61 60 95 100 4 100 100 100 7 5 46 100 100 67 100 100
6 5 5 6 6 7 0 0 0 8 1 0 5 5 13 14 15 91 90 93 100 100 97 98 100 100 95 73 32 7 28 64 70 69 65 87 98 86 7 88 100 81 100 100 100 90 58 98 100 100 100 9 96 100
7 5 5 11 10 4 0 1 0 0 5 0 5 5 5 3 4 32 52 33 36 73 94 81 40 100 100 94 94 46 51 88 92 81 100 87 90 17 49 5 85 51 100 100 100 100 100 100 100 100 100 43 9 100
28 6 11 6 4 6 2 0 0 0 0 0 5 3 13 50 73 100 21 5 56 80 100 87 90 100 82 99 100 100 100 100 100 100 73 76 78 76 4 1 0 74 58 100 100 100 88 100 99 89 83 16 5 55
5 5 5 5 1 0 0 0 0 0 0 0 26 87 89 71 7 18 89 69 100 100 100 99 6 57 90 91 100 84 100 100 100 88 100 84 67 57 4 1 45 70 84 100 100 100 63 100 100 100 93 37 3 5
45 19 5 5 3 3 5 0 0 0 9 99 91 85 50 75 73 94 94 94 100 98 68 57 93 83 100 100 100 91 100 100 100 100 100 100 79 34 88 97 52 98 22 100 100 100 81 68 100 100 97 5 5 5
100 60 5 5 4 5 1 2 0 43 100 34 9 6 45 93 90 84 80 78 98 98 100 100 100 100 100 100 96 100 100 99 100 100 100 97 96 83 29 23 34 74 48 61 100 72 5 70 98 82 80 41 6 38
9 5 5 9 4 0 0 0 1 0 1 68 92 92 79 68 73 89 75 100 98 88 100 100 100 100 100 100 98 100 100 100 100 100 100 100 100 99 65 52 5 55 83 97 100 31 87 100 100 100 100 100 100 10
79 68 8 0 1 0 4 5 0 15 35 98 74 96 81 97 83 99 90 83 91 100 100 100 100 100 100 100 100 100 100 100 100 100 100 100 100 75 31 60 80 100 100 98 99 100 100 100 99 90 100 100 100 100
5 5 2 2 5 5 5 5 4 74 99 91 74 89 84 66 99 92 100 100 100 100 100 100 100 100 100 100 100 100 100 100 100 100 100 100 100 100 100 100 100 100 100 100 100 100 100 100 100 100 39 99 100 100
16 11 15 25 76 41 22 17 38 81 96 93 80 53 74 99 90 73 100 100 100 100 100 100 100 100 100 100 100 100 100 100 100 100 100 100 100 100 100 100 82 100 100 100 100 100 100 100 100 64 70 100 100 100
60 97 100 100 59 5 7 40 96 100 75 80 51 86 67 100 88 99 100 100 100 100 100 100 100 100 100 98 100 100 100 97 87 100 99 100 67 100 100 84 43 28 43 100 100 100 100 100 98 69 100 100 100 100
93 82 63 72 61 28 86 29 82 89 80 39 60 82 100 99 96 100 100 100 100 100 100 100 100 100 100 100 100 100 100 96 100 100 100 100 100 100 100 100 100 94 43 77 83 82 71 29 77 96 100 91 81 100
92 100 100 100 98 97 100 95 78 60 64 78 100 96 100 94 76 100 100 100 100 100 100 100 100 100 100 100 100 100 98 100 100 100 100 100 91 100 100 100 100 100 100 100 100 97 86 100 100 99 100 100 100 99
69 100 100 100 100 100 97 47 67 65 20 78 56 68 99 100 99 100 100 100 100 100 100 100 100 100 100 100 100 100 100 100 100 100 71 100 100 100 100 100 83 100 100 100 100 99 100 96 53 93 100 100 100 100
71 100 100 100 100 91 66 39 32 57 95 93 11 100 63 80 100 100 100 100 100 100 100 100 100 100 100 100 100 95 90 98 100 100 100 100 100 100 100 98 90 92 88 100 100 100 100 100 100 100 100 100 100 100
100 100 100 100 100 81 42 34 42 70 57 19 34 77 66 99 100 100 100 100 100 100 100 100 100 100 100 100 100 100 92 99 86 98 100 100 100 95 94 100 100 100 100 100 100 100 100 94 98 58 94 100 100 94
100 100 100 100 99 58 42 60 69 54 82 54 88 90 65 67 100 100 96 100 100 100 100 100 100 100 100 97 78 68 79 100 97 72 72 100 100 100 100 100 100 100 100 100 100 100 100 100 100 100 100 100 100 100
100 100 100 100 97 34 67 97 81 94 100 100 76 93 75 88 100 95 100 100 100 100 100 100 100 100 100 100 100 96 94 99 100 96 81 100 100 100 100 100 100 100 99 100 96 100 100 100 97 99 100 68 73 100
100 86 73 99 50 91 85 72 62 92 100 87 82 85 98 100 100 100 100 100 100 100 100 100 100 100 100 100 100 100 100 98 98 97 54 38 68 51 91 57 58 63 70 100 100 100 99 100 100 99 100 100 98 81
93 20 77 100 94 99 96 100 100 86 48 67 100 100 100 100 100 100 100 100 100 99 98 100 100 100 91 76 99 95 63 7 8 70 100 80 39 64 20 55 94 70 79 88 100 87 27 15 12 5 5 10 26 86
50 59 36 28 97 97 100 100 79 90 100 100 100 100 100 100 92 100 100 99 66 91 100 100 95 97 95 100 80 20 91 24 5 94 92 77 8 61 38 4 50 46 74 12 25 9 17 12 5 5 10 48 85 89
63 62 84 72 27 75 94 100 100 100 100 100 100 100 100 97 84 81 77 75 84 70 64 79 75 52 36 51 55 37 21 73 83 78 98 100 74 15 34 9 4 10 5 6 7 73 99 100 100 84 35 52 93 100
25 46 52 88 95 82 99 100 100 100 100 100 100 100 100 100 100 100 100 97 88 98 47 44 67 67 100 100 100 97 55 100 44 99 78 96 91 73 100 92 100 100 100 90 100 100 100 99 89 100 100 100 100 100
58 96 74 94 55 95 100 100 100 100 100 100 100 100 100 100 100 100 100 90 100 100 75 92 100 99 100 100 94 100 100 68 45 91 38 11 58 68 90 95 100 100 100 100 100 100 96 61 58 23 12 23 59 100
100 100 100 100 100 100 100 100 100 100 100 100 100 100 100 100 100 100 100 100 100 100 100 100 96 100 89 94 100 51 98 100 6 93 46 6 88 36 5 10 30 54 72 66 57 84 100 97 97 100 100 100 91 67
100 100 100 100 100 100 100 100 100 100 100 100 100 99 92 100 100 100 89 100 100 100 85 66 86 31 50 100 100 80 55 77 44 5 5 8 60 100 100 99 100 98 93 96 98 97 100 100 100 100 100 100 100 100
100 100 100 100 100 100 100 100 100 100 92 100 96 100 100 100 100 100 100 100 92 100 67 8 92 100 100 100 95 100 100 100 15 94 66 22 91 96 100 90 17 84 94 97 100 83 8 24 78 30 66 99 37 13